Dewpoint
70 68 67 65 67 66 66 65 57 58 58 54 53 54 56 58 61 60 61 65 62 61 65 61 57 55 57 55 56 58 61 55 59 54 56 67 69 69 70 71 70 70 71 72 73 75 75 76 76 76 76 77 77 77 77 76 76 76 76 76 76 76 77 77 77 77 76 76 76 75 75 75 75 75 75 75 75 75 75 75 75 75 75 74 74 74 75 75 75 75 75 75 75 75 75 75 75
67 68 67 66 66 66 60 63 59 57 57 56 53 54 57 60 60 60 59 62 61 64 60 58 57 57 60 56 57 56 59 61 60 62 63 66 68 69 70 71 70 70 70 71 72 72 73 76 77 76 76 76 76 76 76 76 76 76 76 76 77 77 76 76 76 76 75 75 74 74 75 75 74 74 74 74 75 75 75 75 75 75 74 75 74 75 75 75 75 75 75 75 75 75 75 75 74
68 67 64 68 68 68 68 63 58 57 53 51 57 55 58 58 58 60 62 63 62 62 59 57 57 58 56 56 57 61 58 62 61 61 63 67 67 70 71 71 71 70 70 71 71 71 73 75 76 76 76 76 76 76 76 76 76 76 76 77 76 76 76 76 75 75 75 73 74 74 75 74 74 74 74 74 75 75 75 75 75 75 75 75 75 75 75 75 75 75 75 75 75 75 74 74 74
68 67 65 66 63 67 62 60 58 55 51 52 51 57 59 58 58 62 64 63 61 58 56 57 59 59 55 57 58 59 60 60 61 62 64 65 67 69 70 71 72 70 69 70 69 69 72 76 77 77 76 76 76 76 76 76 76 76 76 76 75 75 76 75 74 74 75 74 74 75 75 74 74 74 74 75 74 74 74 74 75 75 75 75 75 75 74 75 75 75 75 75 75 74 75 75 75
67 67 66 65 65 60 61 59 56 55 53 56 55 59 59 60 61 63 64 63 59 57 57 58 58 62 61 61 61 59 60 61 60 63 63 65 67 69 70 70 71 69 69 69 69 70 73 77 77 76 76 76 76 76 76 76 76 76 75 75 75 75 75 75 74 74 75 75 75 74 74 74 74 74 74 74 74 74 74 75 75 75 75 75 75 75 75 75 75 76 75 74 74 74 75 75 75
66 65 68 69 65 69 65 59 55 52 52 55 53 55 60 60 62 64 62 60 59 58 57 58 59 60 60 60 63 60 62 61 61 62 63 65 67 69 70 71 68 69 69 70 70 71 73 77 76 76 76 76 76 76 76 76 75 75 75 75 75 75 75 74 75 75 75 75 75 74 74 74 74 74 74 74 74 74 74 74 74 74 75 75 75 75 75 75 75 75 75 74 74 74 75 75 75
64 64 65 67 68 68 59 55 54 52 57 57 56 58 60 61 62 62 61 60 58 57 58 57 59 59 59 61 61 62 65 62 61 62 64 66 66 69 69 68 68 69 70 70 70 71 73 77 77 77 76 76 76 76 76 76 76 75 75 75 75 74 75 75 74 74 74 74 74 74 74 75 75 75 75 74 74 75 74 75 75 74 75 75 75 75 75 75 75 74 75 75 75 74 74 75 75
65 63 62 61 61 63 58 55 53 53 58 59 61 59 61 62 63 64 60 61 57 57 58 59 59 63 62 62 60 64 64 63 62 63 65 66 67 68 68 67 67 68 68 70 70 72 78 77 76 76 76 76 76 76 76 76 76 75 75 75 75 75 75 75 75 75 75 75 74 75 75 75 75 74 75 75 75 75 75 75 75 74 74 74 74 74 74 75 75 75 75 75 74 75 74 74 75
64 68 67 62 59 59 56 52 52 55 56 56 60 63 64 64 63 60 60 59 59 58 58 58 58 59 62 62 62 64 63 63 63 66 66 66 67 67 67 67 66 67 67 67 69 72 74 76 76 75 76 76 75 76 75 75 75 75 76 75 76 76 75 75 75 75 75 76 75 75 75 75 74 75 75 75 75 75 75 75 75 75 75 74 74 74 74 76 75 75 75 75 74 74 74 74 74
64 66 64 61 59 54 52 50 50 54 57 59 61 61 64 62 64 64 62 60 60 59 59 58 58 63 62 62 63 64 63 63 64 65 66 66 67 67 67 66 67 66 66 67 68 70 73 77 76 76 76 76 76 75 76 75 75 75 75 75 76 76 76 76 76 76 76 75 75 75 75 75 75 75 74 75 75 75 75 75 75 75 74 74 74 74 74 74 75 75 75 74 74 74 74 74 74
65 67 69 60 57 52 51 49 51 55 57 59 60 62 63 63 63 62 62 60 60 59 59 59 59 61 63 63 65 65 64 64 64 64 66 67 67 67 66 67 66 65 65 66 68 71 73 75 76 76 76 76 76 76 76 76 76 76 75 75 75 75 76 76 76 75 76 75 75 75 75 75 75 75 75 75 74 74 74 75 75 75 74 74 74 74 74 74 75 75 75 74 74 74 74 74 74
64 63 65 58 54 53 51 51 52 53 57 59 60 65 62 62 64 62 61 59 59 59 59 60 61 61 62 63 64 65 64 63 64 64 66 67 66 66 67 65 65 65 65 66 68 71 72 75 75 76 76 76 76 76 75 75 75 75 75 75 75 76 75 76 75 75 75 75 75 75 75 75 75 75 75 75 74 74 74 74 75 74 74 74 74 75 74 74 75 75 74 74 73 73 73 73 74
64 63 61 55 54 54 52 51 51 54 57 58 60 62 62 62 61 63 59 58 59 59 60 61 60 60 60 63 64 65 62 62 65 65 66 66 66 66 66 66 66 64 64 67 68 70 72 72 72 74 75 76 76 76 75 75 75 75 75 75 75 75 75 75 75 75 75 75 75 75 75 75 75 76 75 75 74 74 74 74 74 75 75 75 75 75 75 75 75 75 74 73 73 73 73 74 74
64 64 61 57 56 53 53 52 52 52 53 58 61 62 61 61 60 61 59 58 59 60 60 63 60 61 64 63 64 63 62 63 65 66 66 67 66 66 66 65 65 65 65 67 68 70 70 70 70 72 76 76 76 76 75 75 75 75 75 75 75 75 75 76 76 76 75 75 75 75 75 75 76 76 76 75 75 75 75 75 75 74 75 75 75 75 75 75 75 74 74 73 73 73 74 74 74
65 65 62 59 54 52 52 52 49 50 57 58 61 64 63 64 64 62 60 58 58 61 62 62 61 61 60 61 62 61 62 63 64 66 67 67 67 67 67 66 65 65 65 66 68 69 68 69 70 74 76 76 76 75 76 75 75 75 75 75 74 75 75 76 76 76 75 75 75 75 74 74 76 76 76 76 76 75 75 75 75 75 75 75 75 75 74 74 74 74 74 74 73 74 74 74 74
66 64 61 58 54 52 52 51 49 49 57 61 62 65 65 64 64 63 62 61 61 62 61 60 62 59 61 60 61 61 62 64 65 67 67 67 68 68 67 66 65 65 66 66 67 68 67 68 71 73 75 75 75 74 75 75 75 75 75 74 74 74 76 76 75 75 75 74 74 74 74 76 75 75 76 75 76 76 74 74 75 75 74 74 75 75 74 74 74 74 74 74 74 74 75 75 74
67 65 60 57 53 51 51 51 49 56 57 61 63 64 62 63 62 65 67 65 61 60 60 61 60 61 59 60 62 62 63 64 66 67 68 68 68 67 68 68 65 65 65 65 68 68 67 68 72 74 74 75 74 74 74 75 75 75 75 74 74 73 74 74 74 74 74 75 75 75 74 75 75 74 75 74 75 75 76 76 76 75 75 74 74 74 74 74 74 74 74 74 75 75 75 75 74
66 62 59 55 54 52 53 53 51 52 55 60 61 61 61 60 62 62 63 64 63 61 60 60 61 61 62 63 62 62 64 64 65 67 66 67 67 66 66 66 65 65 65 64 68 68 68 69 72 73 73 74 74 74 74 74 75 75 75 76 76 75 74 75 75 75 74 76 74 75 76 76 75 76 76 74 75 75 74 74 74 74 74 74 74 74 73 74 74 74 75 74 75 75 75 72 74
64 60 57 55 53 56 55 54 55 54 53 58 60 61 59 60 60 61 62 61 61 60 60 61 61 61 62 62 62 63 64 64 64 65 64 64 64 65 64 66 64 64 65 65 67 68 69 69 71 70 71 73 74 74 72 73 74 75 75 75 74 74 75 76 75 76 76 75 76 75 75 75 75 76 76 75 75 73 73 73 74 74 75 75 74 74 74 73 75 75 76 76 75 75 75 72 73
62 59 55 54 56 58 58 55 56 55 54 56 59 60 59 60 60 61 60 60 60 59 59 61 60 60 61 61 62 63 64 63 64 63 63 64 64 64 64 64 63 65 64 64 66 67 68 68 70 70 72 73 73 73 73 73 74 74 73 74 74 74 75 76 76 76 76 75 74 74 73 76 75 76 75 75 74 73 74 75 75 76 75 75 75 75 76 76 75 75 76 76 75 75 72 69 69
59 58 55 57 59 55 56 55 56 55 55 56 58 59 58 60 60 59 60 58 60 60 60 60 59 60 61 62 62 63 63 63 64 62 62 62 63 63 64 64 63 64 64 65 66 67 68 68 69 71 72 72 72 73 73 72 73 72 71 71 72 73 74 74 74 75 75 75 75 74 72 74 73 74 76 75 74 75 74 74 74 74 75 73 74 75 73 75 75 75 75 73 72 72 71 71 71
58 57 55 57 56 54 60 57 57 56 57 56 58 58 58 60 60 59 59 58 56 59 60 60 61 61 61 61 62 63 63 62 62 61 61 62 63 64 63 64 64 64 66 66 66 67 68 68 68 70 71 72 72 72 72 73 74 71 71 70 71 72 71 71 72 72 73 74 73 71 73 74 74 74 75 75 75 75 73 72 73 73 75 75 75 74 73 74 73 71 71 70 68 69 69 71 71
53 56 56 58 58 57 58 57 61 58 56 56 56 57 59 58 59 59 59 57 57 58 60 61 61 62 62 62 62 62 63 62 61 61 61 62 63 63 63 62 63 66 67 66 67 67 68 68 69 70 69 71 72 73 73 72 71 72 71 70 71 70 72 71 70 70 72 73 71 71 67 68 69 70 73 74 74 74 73 72 72 73 74 73 73 71 73 73 71 70 71 71 69 68 68 70 72
53 51 56 57 57 56 57 56 57 57 56 57 57 58 57 58 57 58 58 59 59 59 60 61 62 62 62 61 61 62 62 62 61 61 60 61 61 62 62 63 64 67 68 67 67 66 68 66 69 70 71 71 72 72 73 71 72 70 70 72 71 71 70 70 67 68 72 72 73 71 70 68 67 68 72 72 72 73 73 74 74 71 71 71 74 72 71 70 71 72 73 73 72 71 68 70 68
50 49 51 55 56 56 57 56 56 55 55 56 56 56 55 56 56 58 58 59 59 60 61 62 62 62 62 62 61 61 62 61 61 60 61 62 61 62 63 64 65 68 66 67 67 66 66 68 69 69 70 72 71 71 72 71 72 71 70 69 69 73 70 69 68 72 70 71 72 73 73 69 68 69 71 72 72 72 73 73 71 71 72 72 73 71 72 73 72 71 72 72 72 72 70 69 69
46 47 49 53 53 54 55 55 54 54 53 53 54 54 55 55 56 56 57 58 60 61 62 62 62 62 61 61 62 60 61 61 61 60 61 62 62 63 63 63 64 67 66 67 66 67 65 66 68 68 70 71 71 69 72 72 72 71 71 70 71 73 69 70 72 67 70 71 70 73 73 73 70 69 71 72 72 73 72 73 73 72 71 72 71 72 71 71 71 73 73 73 71 71 71 69 70
48 45 45 46 51 53 54 54 54 53 53 53 52 52 52 54 55 53 55 58 60 62 61 62 62 62 61 61 61 61 60 60 61 60 61 62 63 63 64 64 64 66 67 67 66 67 67 67 66 68 69 72 71 69 72 73 73 71 72 71 71 71 70 73 70 68 68 71 72 75 75 76 74 72 72 73 74 73 73 73 72 72 71 70 72 71 73 73 73 71 73 71 72 72 71 70 70
39 49 48 47 47 49 51 53 53 53 51 52 51 49 50 52 54 52 54 58 60 61 61 62 62 62 62 61 61 63 61 61 62 61 60 62 64 64 64 64 64 64 66 66 66 68 66 66 66 68 68 71 71 69 72 71 72 71 72 71 70 71 73 71 69 70 70 71 74 75 76 75 76 75 76 75 74 73 72 71 72 72 71 71 72 71 72 73 73 74 76 76 74 73 72 71 71
39 43 41 41 43 45 48 49 49 51 50 50 50 49 49 51 52 53 57 59 60 61 62 62 62 62 62 62 62 63 62 62 62 62 61 62 63 63 63 64 64 65 65 65 66 68 66 65 66 68 68 71 71 68 69 69 70 69 71 71 71 71 72 71 70 69 71 74 75 75 77 77 77 76 76 76 74 72 72 72 71 72 73 73 73 75 75 75 74 73 75 75 73 73 71 72 71
34 32 36 38 40 43 46 47 48 49 49 49 49 45 46 49 51 53 58 59 61 61 62 61 62 62 62 62 62 62 61 61 61 62 62 63 63 63 63 63 65 65 65 65 66 66 66 65 66 67 68 69 71 68 70 68 69 69 70 69 71 71 69 70 70 71 71 72 74 75 75 76 76 76 77 77 75 72 73 72 72 71 73 75 75 75 74 72 73 75 74 73 72 71 70 72 69
31 28 31 33 35 38 44 46 47 47 48 48 49 45 53 50 50 53 58 59 60 60 61 61 62 62 62 62 62 62 61 62 61 62 62 63 63 63 65 65 66 66 66 65 66 67 67 66 66 65 69 70 71 70 69 70 70 69 70 70 70 71 71 71 68 70 70 70 72 72 75 76 77 78 78 77 75 73 71 72 71 71 74 76 73 74 73 72 73 72 71 73 73 72 68 72 71
32 29 27 30 32 36 41 45 46 46 47 48 48 46 48 45 50 56 59 59 58 59 60 61 62 62 62 62 62 61 61 61 62 61 62 62 63 63 64 65 65 65 66 67 67 67 67 68 69 66 68 70 71 71 71 71 70 71 70 71 72 73 71 70 69 68 69 68 70 73 75 77 78 79 79 78 76 74 71 71 71 75 76 75 74 75 74 73 73 73 72 72 73 70 71 69 71
27 27 25 25 29 31 40 45 47 47 47 47 48 49 45 44 50 55 59 58 57 58 60 61 62 61 61 61 61 61 61 61 62 62 62 63 63 63 63 65 66 67 66 67 67 69 69 68 70 65 66 68 71 71 73 73 72 72 73 72 70 72 70 69 69 69 69 69 68 69 75 76 77 78 79 78 77 75 72 72 71 75 75 74 75 75 72 72 73 71 74 73 73 73 70 67 70
21 25 25 24 24 28 34 41 45 47 46 46 47 45 47 48 48 54 57 57 57 57 59 60 62 62 62 61 61 61 61 61 61 62 61 63 63 63 64 66 66 68 68 67 68 68 68 69 68 67 67 67 71 72 73 73 73 73 73 72 73 70 68 66 66 68 70 67 69 71 76 77 77 78 79 79 78 76 75 73 73 76 76 75 75 74 74 73 74 72 73 75 74 74 71 71 70
18 21 23 21 23 26 30 39 44 46 46 45 47 46 46 47 49 54 57 58 56 56 58 59 61 62 62 61 61 61 61 61 61 63 61 61 63 63 63 65 66 67 67 67 69 71 70 70 69 70 69 69 70 73 75 74 73 74 72 72 71 71 70 67 66 67 67 69 68 72 76 76 76 77 78 78 78 76 74 74 75 76 75 75 75 75 74 74 74 74 74 76 77 75 74 74 73
16 20 20 20 23 28 29 36 43 44 44 44 45 47 49 49 49 53 58 58 55 55 58 59 61 61 62 62 61 61 62 61 62 63 62 62 63 62 64 65 66 67 67 69 70 71 71 71 71 71 72 69 72 73 74 71 71 71 68 68 69 68 68 68 70 68 68 67 69 72 76 76 76 77 78 78 78 77 75 74 75 75 75 75 75 74 73 74 76 77 76 75 76 75 74 74 73
25 22 23 21 21 26 28 31 40 42 42 43 44 45 46 47 46 48 53 54 55 54 56 59 61 62 62 61 61 62 63 62 63 64 63 63 63 64 65 66 67 67 68 69 70 70 71 71 72 72 72 72 73 72 72 69 68 68 66 64 64 65 68 68 67 68 67 66 71 72 75 73 75 76 76 76 77 77 77 76 76 76 75 75 76 75 74 75 77 76 76 76 74 74 74 73 72
24 25 27 26 24 23 25 28 35 40 40 42 44 44 45 47 48 48 53 55 52 53 56 59 60 61 62 62 62 62 63 63 64 64 64 64 64 64 65 66 67 67 68 69 70 70 71 70 71 72 72 73 73 72 71 68 68 67 65 65 61 61 65 66 66 67 65 66 72 75 75 73 74 75 75 76 76 76 76 75 76 76 75 76 76 77 77 76 77 76 75 74 73 73 74 72 71
22 21 22 23 23 25 26 28 35 37 38 40 41 42 42 44 45 45 47 51 53 53 54 58 60 61 62 62 62 63 63 64 63 64 64 64 64 64 65 66 66 66 67 68 70 71 72 71 71 72 72 72 72 73 72 70 69 69 65 63 62 60 63 65 63 65 66 65 69 74 74 74 75 75 75 75 75 75 75 75 76 76 76 76 76 77 76 77 77 76 76 73 72 74 72 73 72
20 14 15 19 21 23 24 27 34 35 36 38 41 39 40 42 44 44 45 49 53 53 54 56 59 61 61 61 62 63 63 64 64 64 63 64 65 66 66 66 67 67 68 69 69 70 70 71 71 73 73 73 73 73 73 72 71 72 70 67 66 64 65 66 67 67 68 67 67 71 74 75 75 74 73 74 74 74 75 75 74 75 76 76 76 77 77 77 77 76 73 74 73 70 71 71 72
11 7 5 15 21 25 27 26 29 30 33 36 38 39 40 41 41 41 43 46 50 51 52 55 58 59 61 62 62 63 63 65 64 64 65 65 65 65 66 68 67 67 68 68 68 69 69 70 72 73 73 73 74 74 74 74 73 73 72 71 70 69 70 68 67 66 68 68 67 70 72 74 75 74 73 74 74 74 75 75 74 74 75 76 76 75 76 74 74 75 76 76 75 70 71 71 71
12 9 8 14 21 23 27 29 31 29 29 31 34 37 38 41 40 39 41 45 48 49 53 55 58 59 61 61 62 63 63 65 65 65 64 65 65 66 67 67 67 67 67 68 68 68 69 70 72 73 73 72 73 74 75 74 73 72 71 70 68 67 66 66 64 62 60 61 61 66 71 72 73 74 74 74 74 74 75 75 75 74 74 74 75 73 74 75 76 74 74 75 74 75 74 69 68
11 11 10 10 19 28 29 28 29 31 31 29 32 34 35 38 39 40 42 45 48 49 52 54 57 60 60 61 61 62 62 63 65 65 65 64 66 66 66 67 67 66 67 68 68 69 70 71 73 73 74 74 74 75 75 75 74 73 72 69 66 66 65 63 65 61 59 60 62 66 69 71 74 73 73 74 74 75 75 76 76 75 74 74 75 74 73 72 71 74 74 74 74 75 74 72 70
10 11 12 10 9 20 28 29 28 29 30 30 31 31 34 35 38 41 41 42 46 49 51 54 55 59 59 60 60 63 62 63 64 65 65 64 65 65 65 66 65 65 67 67 67 68 71 72 73 74 74 74 74 74 75 74 74 73 73 70 67 66 62 64 67 66 64 65 64 66 68 70 74 74 72 74 75 75 75 75 76 75 74 73 73 73 72 71 73 75 76 77 76 77 77 73 71
12 11 14 16 11 8 17 24 27 28 28 30 31 33 34 35 37 40 41 40 42 47 49 54 55 58 59 60 59 61 62 63 64 64 64 65 65 65 66 66 66 66 66 67 68 70 71 72 74 74 74 74 74 75 75 75 74 73 73 71 69 67 66 64 67 68 66 68 69 69 72 70 72 75 74 73 75 75 75 75 76 76 74 74 74 71 70 70 73 75 77 77 77 77 76 75 75
15 15 24 22 19 12 9 14 21 27 30 30 31 29 32 32 34 36 39 40 43 44 45 50 55 55 59 59 59 60 62 64 63 64 64 65 65 65 65 66 66 66 66 68 69 69 70 72 73 74 74 74 74 75 75 75 74 74 73 72 71 69 68 67 67 69 70 71 71 72 72 73 70 73 74 75 76 75 75 75 74 74 74 72 72 71 71 71 72 74 75 76 76 76 76 75 75
17 14 18 19 17 15 14 12 19 26 27 30 28 29 30 29 33 33 34 37 40 41 45 48 53 54 57 59 59 59 61 62 63 64 64 65 65 66 66 65 66 67 67 68 69 69 70 71 73 74 75 74 74 74 75 75 74 73 73 73 72 71 71 69 69 71 71 73 72 70 71 72 71 71 70 73 74 74 75 75 72 73 74 74 74 74 73 71 69 70 72 74 77 78 76 76 75
17 14 14 17 21 22 22 17 19 19 21 27 26 27 28 29 32 33 36 37 37 38 41 46 48 53 56 59 58 58 60 62 62 63 64 65 66 66 66 67 67 67 68 69 68 69 70 71 73 74 75 75 74 74 74 74 73 73 73 73 72 72 72 70 71 71 72 72 71 70 71 71 72 71 72 70 73 71 74 74 74 73 74 74 75 75 73 72 70 70 71 73 75 78 78 77 75
18 16 18 16 16 23 21 21 17 16 16 20 21 24 27 29 34 34 33 34 37 39 37 41 44 48 55 57 59 59 59 60 62 64 64 64 65 66 66 67 69 69 69 69 68 68 70 71 73 74 74 75 75 74 74 74 74 73 73 73 73 73 73 72 72 71 72 71 71 71 72 72 73 72 72 71 71 73 73 75 75 74 75 75 76 75 74 75 74 71 72 72 73 74 76 77 76
18 17 19 18 17 25 24 21 22 20 19 16 18 22 22 26 28 33 32 35 36 39 40 39 41 46 52 56 59 57 58 60 61 62 63 65 65 66 67 67 68 68 68 68 68 69 70 70 73 73 74 75 75 75 74 74 73 73 74 73 73 73 73 73 72 70 70 71 71 71 70 69 72 72 71 72 70 71 72 74 76 75 76 76 76 76 75 75 75 73 73 73 71 73 74 75 76
18 17 17 18 20 23 25 22 19 18 21 21 19 17 22 19 24 26 30 33 36 37 38 41 42 44 49 52 56 57 58 60 61 62 62 63 65 66 66 67 67 68 67 67 68 69 70 71 72 74 74 75 75 74 74 73 72 73 74 73 73 73 72 72 72 71 71 71 69 70 71 69 68 71 71 73 74 73 73 74 75 75 75 76 76 76 74 75 76 75 75 75 74 72 74 73 74
19 17 18 18 18 23 23 24 20 20 20 18 22 18 23 26 30 30 30 29 32 34 38 40 41 41 44 48 51 54 55 57 59 61 62 64 65 66 66 66 67 67 69 67 68 70 70 71 72 73 74 74 74 75 74 73 73 73 74 74 73 73 73 72 72 72 72 71 72 71 72 73 70 70 73 73 74 74 74 74 75 74 75 74 76 76 76 74 75 75 75 75 75 72 73 74 74
22 19 18 17 18 17 21 24 19 22 25 23 27 26 24 23 24 26 30 29 30 32 32 32 35 38 44 44 47 50 54 57 59 60 61 64 64 66 66 66 66 67 67 67 69 70 71 71 71 73 74 74 74 75 74 74 73 73 74 74 73 73 73 72 71 72 69 71 73 72 71 71 72 72 72 74 74 76 75 74 74 72 74 75 75 76 75 75 75 75 73 75 75 72 74 75 72
23 21 20 20 19 19 22 17 21 18 19 23 20 20 22 21 19 21 25 26 26 30 31 30 35 35 37 40 44 49 51 55 59 61 62 63 64 65 65 65 66 66 67 68 70 70 70 71 71 72 73 74 73 74 73 74 74 74 75 74 74 74 72 72 71 71 71 71 72 73 71 71 71 70 70 70 73 74 75 76 74 74 73 73 74 73 75 75 75 74 74 75 74 75 75 75 74
25 24 24 21 21 21 25 25 22 21 19 20 18 16 15 19 23 23 18 18 20 25 29 30 31 34 37 39 42 47 49 53 57 59 61 62 63 64 66 64 64 66 68 68 69 68 69 70 70 70 72 72 72 71 72 73 74 73 73 74 74 74 73 73 72 72 73 72 71 71 70 69 70 72 73 73 74 73 74 75 76 74 74 74 75 74 75 75 75 74 73 73 74 76 75 75 75
27 28 26 24 24 24 25 27 29 28 22 23 21 17 19 20 18 17 23 21 18 17 23 22 26 32 35 41 42 45 50 53 55 58 59 61 62 62 63 64 64 65 66 66 67 67 67 68 70 70 70 72 72 72 73 73 72 73 73 74 74 74 74 74 73 73 72 72 71 70 71 68 71 71 71 73 73 73 73 73 73 72 71 72 73 73 72 74 75 74 72 71 72 75 75 76 74
24 25 26 27 25 24 25 26 26 24 26 25 25 19 23 25 22 17 22 28 28 23 24 27 28 30 31 38 41 45 50 53 56 58 59 60 61 61 62 63 63 64 66 66 66 66 66 67 68 68 70 69 70 70 71 72 72 73 73 74 73 74 74 73 72 73 73 73 72 72 71 71 71 72 72 72 74 74 73 73 72 73 71 72 74 73 72 73 75 75 74 74 74 74 75 75 75
21 23 25 24 25 24 24 22 23 24 23 25 24 24 29 22 21 20 19 23 26 30 30 29 31 29 36 39 41 45 49 56 57 57 58 59 61 61 62 63 63 63 64 65 64 65 65 66 67 67 67 68 68 69 71 72 72 72 72 73 73 73 74 73 72 72 72 72 72 73 73 73 71 72 72 71 74 73 73 73 72 73 74 73 74 76 72 72 74 74 74 72 73 75 75 75 75